Wind_Speed
29 28 28 28 27 28 29 30 31 30 29 28 28 27 28 28 28 28 28 28 29 29 30 30 31 32 33 33 33 34 35 35 36 36 37 38 38 38 38 38 38 39 39 40
30 29 29 28 27 27 28 29 29 29 29 28 28 28 28 29 28 28 29 29 29 29 30 30 30 31 31 31 32 32 33 34 34 35 36 36 37 36 37 37 37 37 37 38
30 30 30 29 27 28 28 27 28 28 27 28 29 28 28 28 28 29 29 29 29 30 30 30 30 29 30 30 30 31 32 32 33 34 35 35 35 35 35 34 35 35 35 35
31 31 31 29 28 28 28 28 28 28 28 28 28 29 29 29 29 29 28 28 28 29 29 29 29 29 29 29 30 31 31 31 32 33 34 34 34 34 33 32 31 32 32 32
32 33 32 30 28 28 29 28 28 29 28 28 28 29 29 29 29 29 28 28 28 28 28 28 29 29 29 29 29 30 30 30 30 30 31 31 31 30 30 29 29 29 29 29
31 32 32 30 29 29 30 30 28 28 28 28 28 28 28 29 29 29 29 28 28 27 27 28 28 28 28 28 28 29 29 29 29 29 30 29 29 28 27 26 26 26 26 27
30 31 31 29 29 29 30 29 29 28 28 28 29 29 29 29 29 29 28 28 27 27 28 28 28 28 28 27 27 27 27 28 28 28 27 27 26 26 26 25 25 25 25 24
30 31 30 29 30 30 29 29 28 27 27 28 29 29 29 29 28 28 28 27 28 28 28 28 28 28 27 27 26 26 26 26 26 26 26 25 24 25 24 24 24 23 23 23
30 31 30 30 30 30 29 29 27 27 27 28 28 29 29 29 28 28 28 28 28 28 28 27 27 27 27 26 25 24 24 25 25 25 24 23 23 23 22 22 22 22 22 22
30 30 30 29 29 29 29 28 27 27 27 28 28 28 28 28 27 27 27 27 27 27 26 26 25 25 24 23 23 23 23 23 23 22 22 21 21 21 21 21 21 20 21 21
29 28 28 27 28 29 28 27 26 26 26 27 28 27 27 27 26 26 26 27 27 26 26 25 25 24 24 23 23 22 22 22 22 20 20 19 19 20 20 20 20 20 20 20
27 26 27 26 27 27 27 27 27 27 26 26 26 26 26 26 26 25 25 25 25 25 24 24 24 23 23 23 22 22 22 20 19 18 18 18 18 19 19 19 19 19 19 19
28 27 27 27 26 26 27 26 26 26 26 25 25 25 25 25 24 23 23 23 23 23 22 22 21 21 21 21 21 21 20 18 17 16 16 16 17 17 18 18 18 19 19 19
28 28 27 27 26 26 26 26 25 25 25 25 24 24 23 23 23 23 23 22 21 21 21 20 19 19 19 19 19 18 18 17 16 16 16 16 16 16 16 17 18 18 18 18
27 27 27 26 26 25 25 25 25 24 24 23 23 22 22 22 22 22 22 21 20 19 19 18 17 17 18 18 17 16 16 15 15 15 15 15 15 16 16 16 17 16 17 17
25 26 26 25 24 24 25 25 24 23 22 22 22 21 21 22 22 21 20 20 19 18 17 17 17 17 17 17 16 15 15 14 14 15 14 15 15 15 16 16 16 16 16 16
25 24 24 24 23 23 23 23 23 23 22 21 21 21 21 21 20 20 20 19 18 17 16 16 16 17 17 16 15 14 14 13 14 14 14 14 15 15 15 15 15 14 14 14
24 23 23 22 21 21 21 22 22 21 21 21 21 22 21 20 20 20 19 19 17 17 17 16 16 16 15 15 14 13 13 13 13 13 14 14 14 13 13 13 12 11 11 11
21 21 20 20 20 20 21 21 21 21 21 21 21 21 20 20 19 19 19 18 17 16 16 16 15 15 14 13 13 12 12 12 12 12 13 12 12 12 11 11 11 10 11 11
19 18 19 19 19 19 20 19 20 20 20 20 20 19 19 19 19 18 17 16 15 15 15 14 14 14 14 13 12 12 12 12 12 12 12 11 11 11 11 10 10 10 10 10
18 18 18 18 18 17 17 17 17 17 18 18 18 18 18 18 17 17 15 14 14 13 13 13 13 13 13 12 12 12 12 12 12 12 11 11 10 10 10 10 9 9 9 8
18 18 17 17 17 17 16 16 16 16 16 16 16 17 17 16 16 15 14 13 13 12 12 12 12 12 12 12 12 12 12 11 11 11 10 10 9 9 9 8 8 8 7 7
18 18 17 17 17 17 16 16 16 16 16 15 14 13 13 13 13 12 12 12 11 11 11 11 11 11 11 11 11 11 11 10 10 10 9 9 8 8 8 8 7 7 6 6
18 17 17 17 17 17 16 16 16 15 14 13 13 13 13 12 12 11 11 10 10 10 10 11 11 11 11 10 10 10 9 9 9 9 8 8 8 8 7 7 7 6 6 5
18 17 17 17 16 16 15 15 15 13 13 12 12 11 11 11 11 11 11 11 11 10 10 10 10 10 10 10 9 9 9 8 8 7 7 7 7 7 7 7 6 6 5 5
18 17 17 16 16 15 14 14 13 12 12 11 11 11 10 10 10 10 10 10 10 10 10 10 10 10 9 9 8 8 7 7 7 7 7 6 6 6 7 7 6 5 5 4
18 17 16 15 14 14 14 13 13 12 11 11 10 10 10 9 9 9 9 9 9 9 9 10 10 9 9 8 7 7 6 6 6 6 6 6 6 6 6 6 5 5 5 5
Wind_Direction
287 286 285 285 286 283 281 279 278 278 278 279 280 282 281 281 282 281 280 281 282 281 281 280 277 275 273 273 274 274 273 272 272 272 272 273 273 272 271 271 272 270 269 266
285 284 283 283 285 285 283 281 280 279 277 276 279 281 281 281 281 281 281 282 283 282 282 283 281 279 277 276 276 276 275 274 273 273 273 274 274 273 273 272 272 270 268 267
285 284 283 284 287 287 287 285 282 279 277 276 277 279 281 281 281 281 282 283 283 284 283 284 283 282 281 279 279 279 277 276 275 275 275 275 274 274 275 274 273 271 269 268
283 283 284 288 288 287 286 285 283 280 277 277 278 278 280 281 282 282 282 283 284 285 284 284 284 283 283 283 283 282 280 278 278 277 276 276 274 273 274 274 275 272 271 270
283 284 285 287 288 286 284 283 283 281 278 277 279 279 280 282 282 283 282 283 284 284 284 284 285 284 284 284 284 283 281 279 280 279 278 278 275 273 274 275 275 273 271 270
284 285 288 290 288 287 286 284 283 281 280 279 279 279 281 281 282 282 282 283 283 284 285 285 286 286 286 285 283 283 282 279 281 281 281 278 274 272 273 274 275 274 272 269
284 285 288 290 289 288 287 287 284 281 280 279 280 281 282 281 283 283 282 282 282 282 284 286 286 286 287 287 284 282 281 280 281 282 280 278 273 272 272 273 273 272 271 270
285 286 290 291 288 287 287 286 284 281 281 282 283 283 283 283 283 283 282 282 282 282 284 286 287 286 287 286 283 282 283 282 282 282 281 277 272 272 272 272 272 272 272 271
286 287 288 288 286 287 287 285 283 282 281 282 283 284 283 282 282 283 283 283 284 283 284 284 286 286 288 286 283 283 284 285 284 283 279 275 271 270 271 272 272 273 272 270
285 286 285 286 285 286 286 285 283 282 281 283 284 284 283 281 282 284 284 284 283 282 283 284 285 285 286 286 285 285 285 286 285 283 278 273 268 269 271 272 272 273 273 271
285 286 285 284 284 284 284 283 281 281 281 283 283 284 283 281 282 284 286 287 286 284 284 284 285 284 283 285 287 286 285 286 283 279 277 272 270 271 271 272 272 272 273 273
286 286 286 286 284 282 281 281 280 280 281 282 283 284 286 285 285 287 288 288 288 287 285 284 284 284 283 284 286 286 285 284 281 278 275 271 270 272 272 271 270 271 272 274
286 286 287 287 285 283 283 281 280 280 280 280 281 284 286 287 286 287 288 288 288 287 285 284 284 284 285 285 285 284 281 278 276 275 275 274 273 273 272 271 271 272 274 276
285 286 288 288 286 284 283 282 281 280 280 280 281 283 284 285 286 288 289 291 290 288 287 284 282 283 284 287 287 283 279 274 272 273 274 274 272 271 272 273 274 275 276 278
286 285 287 288 286 284 283 282 282 282 281 280 280 281 282 284 286 288 291 292 293 291 289 284 282 282 284 286 285 282 277 272 271 273 273 273 271 272 274 275 276 277 279 279
286 286 286 285 285 284 284 283 281 280 280 281 281 280 280 282 284 286 289 292 293 292 291 285 284 285 284 284 281 277 273 270 270 270 271 273 273 276 278 279 279 278 279 280
285 284 284 283 285 285 284 283 281 280 280 280 280 280 281 283 283 284 288 292 291 291 290 287 286 287 287 283 277 275 271 269 269 270 271 275 276 279 281 280 278 277 278 278
284 283 283 284 285 285 284 283 283 282 281 281 281 281 281 282 282 284 287 289 288 289 288 287 287 287 286 281 277 275 271 270 270 271 274 277 277 278 279 278 276 274 276 279
283 284 285 285 286 286 285 284 284 283 283 282 282 280 279 280 281 284 286 286 286 287 286 284 284 284 282 281 278 276 273 270 269 271 275 276 276 274 273 273 272 273 277 281
284 285 287 288 289 289 287 286 285 284 283 284 283 281 279 279 280 282 285 283 283 285 283 281 282 282 280 279 277 277 275 272 272 274 276 276 274 271 269 270 272 274 276 280
283 284 285 288 291 292 290 288 287 286 285 285 284 281 279 277 277 278 279 278 281 282 281 280 281 282 280 275 275 275 275 272 271 272 272 272 270 266 265 268 272 274 276 276
284 285 286 288 291 292 292 291 290 289 289 288 286 283 279 276 274 274 272 275 279 280 278 277 278 281 281 277 276 275 274 271 270 269 267 267 265 261 262 266 271 274 272 266
285 286 285 286 289 291 292 293 292 290 288 286 285 283 281 277 273 270 271 273 275 275 274 274 276 278 280 279 278 276 272 272 270 266 263 261 262 261 259 260 264 268 266 261
284 284 284 285 287 289 292 293 293 291 289 286 283 281 279 275 269 269 272 273 273 271 268 271 276 277 278 279 279 275 271 271 268 262 258 259 261 260 254 254 258 260 258 254
283 283 283 285 285 287 289 292 291 289 288 288 286 282 278 272 268 271 271 268 265 263 265 269 273 276 276 276 275 273 271 267 262 254 251 252 254 252 247 248 252 252 248 245
284 285 285 284 284 286 288 289 287 286 286 286 285 282 279 273 269 268 266 261 259 260 264 266 269 272 272 273 274 273 268 261 254 249 243 243 246 246 244 242 241 240 240 243
283 282 282 282 284 284 285 285 284 284 284 285 283 281 277 271 269 266 262 258 256 257 261 265 267 268 269 270 268 266 261 254 245 238 235 236 238 239 238 234 232 233 237 245
Height
5578 5577 5575 5574 5573 5571 5569 5568 5567 5568 5568 5568 5567 5566 5565 5563 5562 5560 5559 5558 5557 5555 5554 5552 5551 5550 5549 5549 5548 5547 5547 5546 5546 5545 5545 5544 5543 5542 5541 5540 5540 5539 5539 5539
5571 5569 5567 5566 5566 5564 5562 5561 5560 5559 5560 5560 5559 5558 5556 5555 5554 5553 5551 5550 5549 5547 5546 5544 5543 5541 5540 5540 5539 5538 5537 5536 5536 5535 5534 5534 5533 5531 5531 5530 5529 5529 5528 5528
5563 5562 5559 5559 5560 5558 5556 5554 5553 5552 5553 5552 5551 5550 5549 5547 5546 5545 5544 5542 5541 5539 5538 5536 5535 5533 5532 5531 5530 5529 5528 5527 5526 5525 5524 5523 5522 5521 5520 5519 5519 5518 5518 5518
5555 5554 5551 5555 5552 5550 5548 5547 5546 5544 5544 5544 5543 5542 5541 5540 5538 5537 5536 5534 5533 5531 5530 5528 5527 5525 5524 5523 5521 5520 5519 5518 5517 5515 5514 5513 5512 5511 5510 5510 5509 5509 5509 5509
5546 5544 5543 5546 5545 5542 5540 5540 5539 5537 5536 5536 5535 5533 5533 5532 5530 5529 5528 5527 5525 5523 5522 5520 5519 5517 5516 5515 5513 5512 5510 5509 5507 5506 5505 5504 5503 5502 5502 5501 5501 5500 5500 5500
5539 5536 5535 5538 5537 5534 5532 5531 5532 5529 5528 5528 5526 5526 5526 5524 5523 5521 5520 5519 5517 5516 5514 5513 5511 5509 5508 5507 5505 5504 5502 5501 5499 5498 5497 5496 5495 5494 5494 5494 5493 5493 5493 5493
5531 5528 5527 5529 5528 5526 5525 5525 5524 5521 5520 5520 5519 5518 5517 5515 5514 5513 5512 5511 5509 5508 5507 5505 5503 5502 5500 5499 5497 5496 5494 5493 5492 5490 5489 5488 5487 5487 5487 5487 5486 5486 5486 5486
5524 5521 5523 5521 5519 5518 5517 5516 5514 5513 5512 5511 5510 5509 5508 5507 5506 5505 5504 5503 5501 5500 5498 5497 5495 5494 5492 5491 5489 5488 5487 5486 5484 5483 5481 5481 5480 5480 5480 5480 5480 5480 5479 5479
5517 5517 5515 5512 5510 5509 5508 5507 5506 5505 5504 5503 5502 5501 5500 5499 5498 5496 5495 5494 5493 5491 5490 5489 5488 5486 5485 5484 5482 5480 5479 5478 5477 5476 5475 5474 5474 5474 5473 5473 5473 5473 5473 5473
5508 5507 5506 5504 5502 5501 5500 5499 5498 5497 5496 5495 5494 5493 5492 5491 5490 5488 5487 5486 5485 5483 5482 5481 5480 5479 5478 5476 5475 5474 5472 5471 5470 5469 5468 5468 5468 5468 5468 5468 5467 5467 5467 5468
5499 5499 5497 5496 5494 5493 5492 5491 5490 5489 5488 5487 5486 5485 5484 5483 5482 5481 5479 5478 5476 5475 5474 5473 5473 5472 5470 5469 5468 5467 5466 5465 5464 5463 5462 5462 5462 5462 5462 5462 5462 5462 5462 5462
5492 5491 5489 5489 5487 5485 5483 5483 5482 5481 5480 5480 5479 5478 5477 5475 5474 5473 5472 5470 5469 5467 5466 5465 5464 5464 5463 5462 5461 5460 5459 5458 5458 5457 5457 5457 5457 5457 5457 5457 5457 5457 5456 5456
5485 5483 5482 5481 5479 5477 5476 5475 5474 5473 5473 5472 5471 5470 5469 5468 5467 5466 5464 5463 5462 5460 5459 5458 5457 5457 5456 5455 5454 5454 5453 5452 5452 5452 5452 5452 5452 5452 5452 5452 5452 5451 5451 5451
5477 5476 5474 5473 5472 5470 5469 5468 5467 5466 5465 5464 5464 5463 5462 5461 5460 5459 5458 5456 5455 5453 5452 5451 5451 5450 5450 5449 5448 5447 5447 5447 5447 5447 5447 5447 5447 5447 5447 5447 5447 5446 5446 5445
5470 5469 5467 5466 5464 5463 5462 5461 5460 5459 5458 5457 5456 5456 5455 5454 5453 5452 5451 5450 5448 5447 5446 5445 5445 5444 5444 5443 5442 5442 5442 5442 5442 5442 5442 5442 5442 5442 5442 5442 5442 5441 5441 5440
5463 5462 5460 5459 5457 5456 5455 5454 5453 5452 5451 5450 5449 5448 5448 5447 5446 5445 5445 5443 5442 5441 5440 5439 5439 5439 5438 5438 5437 5437 5437 5437 5437 5438 5438 5438 5438 5438 5438 5437 5437 5436 5436 5435
5456 5455 5453 5452 5451 5449 5448 5447 5446 5445 5444 5443 5443 5442 5441 5440 5440 5439 5438 5438 5436 5436 5435 5434 5434 5434 5433 5433 5432 5432 5433 5433 5433 5433 5433 5433 5433 5433 5433 5433 5432 5432 5431 5431
5449 5448 5447 5445 5444 5443 5442 5440 5439 5438 5438 5437 5436 5435 5435 5434 5433 5433 5432 5432 5431 5430 5430 5429 5429 5429 5429 5428 5428 5428 5428 5428 5429 5429 5429 5429 5429 5429 5429 5428 5428 5428 5428 5428
5442 5441 5440 5439 5438 5437 5436 5434 5433 5432 5431 5430 5430 5429 5428 5428 5427 5427 5426 5426 5425 5425 5425 5424 5424 5424 5424 5424 5424 5424 5424 5424 5424 5425 5425 5425 5425 5425 5425 5425 5425 5425 5425 5425
5437 5436 5435 5434 5433 5431 5430 5428 5427 5426 5425 5424 5423 5423 5422 5422 5421 5421 5421 5421 5420 5420 5420 5420 5420 5420 5420 5420 5420 5420 5420 5420 5421 5421 5421 5421 5421 5421 5422 5422 5422 5422 5422 5422
5432 5431 5430 5429 5427 5426 5424 5422 5421 5420 5419 5418 5418 5417 5416 5416 5416 5416 5416 5416 5416 5415 5415 5415 5416 5416 5416 5416 5417 5417 5417 5417 5417 5417 5417 5418 5418 5418 5419 5419 5419 5419 5419 5419
5427 5426 5425 5424 5422 5421 5419 5418 5416 5415 5414 5413 5413 5412 5411 5411 5411 5411 5411 5412 5411 5411 5412 5412 5412 5413 5413 5413 5413 5413 5413 5413 5414 5414 5414 5414 5415 5415 5416 5416 5416 5416 5416 5417
5421 5420 5420 5419 5417 5416 5414 5413 5412 5410 5409 5409 5408 5408 5407 5407 5407 5407 5408 5408 5408 5408 5408 5409 5409 5410 5410 5410 5410 5410 5410 5410 5410 5411 5411 5412 5412 5413 5413 5414 5414 5414 5414 5415
5416 5415 5414 5413 5412 5411 5410 5408 5407 5406 5405 5404 5404 5403 5403 5403 5404 5404 5404 5404 5404 5405 5405 5406 5406 5407 5407 5407 5407 5407 5407 5407 5407 5408 5408 5409 5410 5410 5411 5412 5412 5412 5413 5413
5410 5410 5409 5408 5407 5406 5405 5404 5403 5402 5401 5401 5400 5400 5399 5400 5400 5401 5401 5401 5401 5402 5403 5403 5404 5404 5404 5404 5405 5405 5405 5405 5405 5406 5406 5407 5407 5408 5409 5410 5410 5411 5411 5412
5405 5404 5404 5403 5402 5401 5401 5400 5399 5399 5398 5397 5397 5397 5397 5397 5397 5397 5398 5398 5399 5399 5400 5401 5401 5402 5402 5402 5402 5402 5402 5403 5403 5404 5404 5405 5406 5406 5407 5408 5408 5409 5410 5410
5400 5399 5398 5398 5398 5397 5396 5396 5395 5395 5394 5394 5394 5394 5394 5394 5394 5394 5395 5395 5396 5397 5398 5398 5399 5399 5399 5400 5400 5400 5400 5401 5401 5402 5403 5403 5404 5405 5405 5406 5407 5408 5408 5409